Wind_Speed
12 12 12 12 13 13 13 14 14 14 14 14 14 14 15 15 15 15 14 14 15 15 15 15 15 15 16 16 17 18 18 19 20 20 21 21 22 22
16 16 16 16 16 16 17 17 17 18 18 18 18 18 18 18 18 18 17 17 17 18 17 17 17 18 18 18 18 18 19 20 20 21 22 23 24 24
20 20 20 20 20 20 21 21 21 21 21 21 21 21 21 21 21 21 21 21 20 20 20 20 20 20 21 21 21 21 21 21 21 22 23 23 24 25
23 23 23 24 24 24 24 25 25 25 25 25 25 25 25 25 25 25 25 25 24 24 24 24 24 24 24 24 24 24 24 24 24 24 25 25 25 26
25 26 26 26 27 28 28 28 29 29 29 29 29 29 29 29 29 28 28 28 28 28 27 27 28 28 28 28 28 28 28 28 28 27 27 27 27 27
28 28 29 29 30 31 31 32 32 33 33 33 32 32 32 32 32 32 32 32 31 31 31 31 31 31 31 31 31 31 31 31 31 30 30 30 30 30
31 31 32 33 33 34 34 34 35 35 35 35 35 35 35 36 35 35 35 35 35 35 35 34 34 34 34 34 34 35 35 34 34 34 33 33 33 33
33 34 35 36 36 36 37 38 38 38 37 37 38 38 38 38 38 38 38 38 38 38 38 37 38 38 38 37 37 37 38 38 37 37 36 36 36 36
36 37 37 38 39 39 39 39 40 40 40 40 40 40 40 39 39 40 40 40 40 41 41 41 42 41 41 41 40 40 40 40 40 40 40 40 40 40
38 39 39 40 39 40 41 40 40 40 41 41 41 42 42 41 41 41 42 43 43 43 44 43 44 44 44 44 43 43 44 44 44 44 44 44 44 44
38 39 39 40 40 40 40 41 41 42 42 43 43 43 44 44 44 44 45 46 46 46 46 46 47 47 47 47 47 47 47 47 47 47 47 47 47 47
38 39 40 41 42 42 43 43 44 44 45 46 45 45 46 46 46 47 47 48 48 49 50 50 50 51 50 49 50 51 51 51 52 51 51 51 51 51
41 42 42 44 45 45 45 45 45 46 47 48 47 47 48 48 48 49 49 49 49 49 50 51 50 51 52 52 52 53 54 54 55 55 55 55 55 55
42 43 44 45 46 46 47 47 48 48 49 49 50 49 49 49 49 49 50 50 49 49 49 51 51 51 52 53 53 55 56 56 56 57 57 58 58 58
44 45 46 47 48 49 49 50 49 49 49 50 50 50 51 51 51 51 52 52 52 52 53 54 54 54 55 55 55 56 56 57 57 58 59 59 60 61
46 46 47 48 48 49 49 50 51 51 51 51 52 52 52 52 53 53 53 53 54 54 55 55 54 55 55 55 54 53 53 53 54 55 56 57 58 59
47 47 48 48 50 50 49 49 50 51 51 51 52 53 53 53 53 53 54 54 54 54 54 54 53 53 53 53 52 52 52 52 53 54 54 55 55 56
48 49 49 49 50 50 51 51 51 51 52 52 52 52 52 52 53 53 53 53 53 53 53 52 52 53 52 52 52 53 53 53 53 53 53 54 54 54
49 49 49 50 50 50 50 50 50 50 50 50 51 51 50 51 51 52 51 51 51 51 50 51 51 51 51 51 51 53 53 53 53 53 53 53 53 53
49 50 50 50 50 50 50 50 50 50 50 50 50 50 50 50 50 51 50 50 49 48 48 49 49 50 51 51 50 50 51 51 51 51 51 51 51 51
49 49 49 49 49 49 49 49 49 49 49 49 49 49 49 49 49 49 48 48 47 47 46 46 46 47 48 48 48 47 48 48 48 48 48 48 48 48
48 48 48 47 47 46 46 46 46 46 46 46 46 46 46 46 46 46 46 45 44 44 43 43 43 44 45 45 44 43 43 43 44 44 44 44 44 42
45 44 44 44 43 43 43 43 43 43 43 43 43 43 43 43 43 43 42 42 41 41 41 41 41 42 41 41 41 40 39 40 40 39 39 39 38 37
Wind_Direction
260 266 271 276 281 283 285 287 289 291 292 293 293 292 291 291 291 290 289 288 286 285 284 283 281 279 278 277 276 275 274 274 273 273 272 272 273 273
262 266 270 275 279 282 284 285 286 288 288 289 289 289 288 288 287 287 286 285 284 283 282 281 280 280 279 278 278 277 276 275 275 273 273 273 273 272
264 268 271 274 278 280 281 283 284 285 285 286 286 286 286 285 283 284 284 284 284 282 281 279 279 278 278 278 278 278 278 277 277 276 276 275 275 274
266 269 272 274 276 278 280 281 282 283 283 284 284 283 283 282 281 280 281 281 282 281 280 278 277 277 276 276 276 277 277 277 277 277 276 276 275 275
268 270 273 275 276 277 278 280 281 281 282 282 281 281 281 281 280 279 278 278 279 279 279 278 277 276 275 275 275 275 275 276 276 276 275 275 275 274
270 271 273 275 276 277 278 280 280 280 280 281 281 280 279 279 279 278 277 277 277 277 277 277 276 276 275 275 274 274 274 275 275 275 274 274 274 274
272 273 273 275 277 278 278 279 281 280 279 279 279 278 278 278 278 278 278 278 278 277 276 276 276 276 275 274 274 275 275 275 274 274 273 273 273 273
273 274 275 276 277 278 278 279 280 279 278 278 278 278 277 276 276 276 276 277 278 277 277 276 276 276 275 274 274 274 274 273 273 273 273 273 273 273
274 274 275 276 276 277 278 279 280 279 278 277 276 276 275 275 276 276 276 277 277 277 276 277 276 275 274 274 274 273 273 273 273 273 272 272 273 272
276 276 277 278 278 278 277 278 279 278 278 278 277 275 274 275 275 276 276 276 276 276 277 276 276 275 275 275 274 273 273 273 273 273 273 273 273 273
280 279 279 279 279 279 278 278 278 277 276 276 276 276 274 274 274 275 275 275 275 275 276 276 275 275 274 274 275 274 273 273 273 273 273 273 273 273
280 280 279 279 279 278 278 277 277 276 275 276 276 276 276 275 275 274 275 276 276 276 275 275 274 274 274 275 275 274 274 274 274 274 274 273 273 272
281 281 281 280 280 279 279 278 277 277 277 277 277 277 277 277 277 277 277 277 277 277 276 275 275 275 275 275 275 275 275 274 274 274 273 273 273 272
282 282 282 281 280 280 280 280 279 278 277 277 277 277 278 278 278 277 278 278 278 278 278 278 277 276 277 277 276 276 275 275 274 273 273 273 272 271
282 282 282 281 280 280 280 280 280 280 280 279 278 278 278 278 278 278 278 278 279 279 280 280 279 278 278 278 278 278 276 275 275 274 273 273 273 272
282 281 281 281 282 282 281 280 279 280 280 280 279 279 279 279 280 280 280 280 279 279 280 280 279 279 279 279 279 279 278 277 276 276 275 274 274 273
283 282 281 281 282 282 281 281 281 280 280 280 280 280 280 281 282 282 282 281 281 281 280 280 279 279 279 280 280 279 280 280 279 279 277 276 275 274
284 284 284 283 284 283 282 282 281 281 281 281 281 281 281 281 281 281 282 281 281 281 281 280 279 279 279 280 280 280 280 281 280 280 279 278 276 275
286 286 286 285 284 284 283 283 282 282 281 281 281 281 281 281 280 281 281 281 281 281 281 281 279 279 279 279 280 281 281 281 280 279 279 279 278 277
287 287 286 286 286 285 284 283 282 282 281 281 281 280 280 280 280 280 280 281 281 281 281 280 279 279 279 280 280 281 281 282 281 281 280 280 279 278
289 288 288 287 287 286 285 284 284 283 282 282 281 280 280 280 280 280 280 280 280 280 280 280 280 280 281 281 281 281 281 281 281 281 279 279 279 278
290 289 289 288 287 286 286 286 286 285 284 283 282 281 281 280 280 280 280 279 280 279 280 280 281 281 281 282 282 281 281 281 281 281 281 281 280 279
291 290 289 289 288 288 287 287 286 285 284 283 282 281 281 280 279 279 278 278 278 278 279 279 281 282 282 282 283 282 281 282 281 281 282 282 281 279
Height
5881 5881 5881 5881 5881 5880 5880 5879 5879 5878 5877 5876 5875 5874 5873 5872 5871 5871 5870 5869 5869 5868 5867 5867 5866 5866 5865 5865 5865 5864 5864 5864 5864 5864 5864 5864 5864 5864
5878 5878 5878 5878 5878 5877 5877 5876 5875 5875 5874 5873 5872 5871 5870 5869 5868 5867 5866 5865 5865 5864 5863 5863 5862 5861 5861 5860 5860 5860 5859 5859 5858 5858 5858 5858 5858 5858
5874 5874 5874 5873 5873 5873 5872 5871 5871 5870 5869 5868 5867 5866 5865 5864 5863 5862 5861 5861 5860 5859 5858 5858 5857 5856 5856 5855 5855 5854 5854 5853 5853 5853 5852 5852 5852 5852
5868 5869 5868 5868 5867 5867 5866 5866 5865 5864 5863 5862 5861 5860 5859 5858 5857 5856 5855 5854 5854 5853 5852 5852 5851 5850 5850 5849 5849 5848 5848 5847 5847 5846 5846 5845 5845 5845
5862 5862 5862 5861 5861 5860 5860 5859 5858 5857 5856 5855 5854 5853 5852 5851 5850 5849 5848 5848 5847 5846 5845 5845 5844 5843 5843 5842 5842 5841 5841 5840 5840 5839 5838 5838 5838 5838
5856 5855 5854 5854 5853 5853 5852 5851 5850 5849 5848 5847 5846 5845 5844 5843 5842 5841 5841 5840 5839 5838 5837 5836 5836 5835 5835 5834 5834 5833 5832 5832 5831 5831 5830 5830 5830 5830
5848 5847 5847 5846 5845 5844 5843 5842 5841 5840 5839 5838 5837 5836 5835 5834 5833 5832 5831 5831 5830 5829 5828 5827 5826 5826 5826 5825 5824 5824 5823 5822 5822 5822 5821 5821 5821 5821
5839 5839 5838 5837 5836 5835 5834 5833 5832 5830 5829 5828 5827 5826 5825 5823 5823 5822 5821 5821 5820 5819 5818 5818 5816 5816 5815 5814 5814 5813 5812 5812 5811 5811 5811 5811 5811 5810
5830 5829 5828 5827 5826 5825 5824 5822 5821 5819 5818 5817 5816 5815 5814 5813 5812 5811 5810 5809 5809 5808 5806 5806 5805 5804 5803 5803 5803 5802 5801 5801 5800 5800 5800 5800 5799 5799
5820 5819 5818 5816 5815 5813 5812 5811 5810 5809 5807 5805 5804 5803 5802 5801 5800 5799 5798 5797 5797 5795 5794 5794 5793 5791 5791 5790 5790 5790 5789 5788 5788 5787 5787 5787 5787 5787
5810 5808 5807 5805 5804 5802 5800 5799 5798 5797 5795 5793 5792 5790 5789 5788 5787 5786 5785 5784 5784 5783 5781 5780 5779 5778 5778 5777 5776 5775 5775 5774 5774 5773 5773 5773 5772 5772
5799 5797 5795 5794 5792 5790 5788 5787 5785 5784 5782 5780 5779 5777 5776 5774 5773 5772 5771 5770 5769 5769 5767 5766 5765 5763 5763 5763 5761 5760 5759 5759 5758 5758 5757 5757 5756 5756
5788 5786 5784 5782 5780 5778 5775 5773 5772 5770 5768 5766 5765 5763 5762 5760 5759 5757 5756 5755 5754 5753 5752 5750 5750 5748 5747 5747 5746 5744 5743 5742 5741 5741 5741 5740 5740 5739
5776 5774 5771 5769 5767 5765 5762 5760 5758 5756 5754 5752 5750 5749 5747 5746 5744 5742 5741 5739 5738 5737 5736 5734 5733 5732 5731 5730 5730 5728 5726 5725 5724 5723 5722 5722 5722 5722
5764 5761 5758 5756 5753 5751 5748 5746 5744 5741 5739 5737 5735 5734 5732 5730 5728 5727 5725 5723 5722 5721 5719 5717 5716 5715 5714 5713 5712 5710 5709 5707 5705 5704 5703 5703 5703 5703
5750 5747 5745 5742 5739 5736 5734 5731 5729 5727 5724 5722 5720 5718 5716 5714 5712 5711 5709 5707 5706 5704 5702 5700 5699 5697 5696 5695 5693 5692 5690 5688 5687 5686 5685 5684 5684 5683
5736 5733 5730 5727 5724 5721 5719 5716 5714 5711 5709 5706 5704 5702 5700 5698 5696 5694 5692 5690 5688 5687 5685 5682 5681 5679 5678 5677 5675 5674 5672 5670 5669 5668 5666 5666 5665 5664
5723 5719 5716 5713 5710 5707 5704 5701 5698 5696 5693 5691 5688 5686 5684 5682 5680 5678 5675 5674 5672 5670 5667 5665 5663 5662 5661 5660 5658 5656 5654 5653 5651 5649 5647 5647 5647 5645
5708 5704 5701 5697 5694 5691 5688 5685 5682 5679 5677 5675 5672 5670 5668 5666 5663 5661 5659 5657 5655 5653 5651 5648 5646 5645 5644 5644 5642 5638 5637 5635 5633 5632 5630 5628 5628 5627
5692 5689 5685 5682 5678 5675 5672 5669 5666 5663 5660 5658 5656 5654 5651 5649 5647 5645 5643 5641 5639 5637 5635 5633 5631 5629 5627 5627 5626 5623 5619 5617 5616 5614 5613 5611 5610 5609
5677 5673 5670 5666 5662 5659 5656 5653 5650 5647 5644 5642 5639 5637 5635 5632 5630 5628 5627 5625 5623 5622 5620 5618 5616 5613 5611 5610 5609 5608 5605 5601 5599 5598 5596 5595 5594 5593
5662 5658 5654 5650 5647 5643 5640 5637 5634 5631 5628 5625 5623 5621 5619 5616 5615 5613 5611 5610 5608 5606 5605 5603 5601 5599 5596 5595 5593 5592 5590 5588 5585 5583 5581 5579 5577 5577
5647 5643 5639 5636 5632 5629 5626 5622 5619 5616 5613 5610 5608 5606 5603 5601 5599 5598 5596 5595 5594 5592 5591 5589 5587 5585 5583 5581 5579 5578 5576 5574 5572 5570 5569 5566 5564 5563